Regional Weather Roundup
Issued by NWS Lake Charles, LA

Current Version | Previous Version | Text Only | Print | Product List | Glossary On
Versions: 1 2 3 4 5 6 7 8 9 10 11 12 13 14 15 16 17 18 19 20 21 22 23 24 25 26 27
000
ASUS44 KLCH 231910
RWRLCH
RWRLCH
REGIONAL WEATHER ROUNDUP
NATIONAL WEATHER SERVICE LAKE CHARLES LA
200 PM CDT THU OCT 23 2014

Note: "fair" indicates few or no clouds below 12,000 feet with no
significant weather and/or obstructions to visibility.


ACROSS SOUTHEAST TEXAS

CITY           SKY/WX    TMP DP  RH WIND       PRES   REMARKS
BEAUMONT       PTSUNNY   76  55  48 N7        30.09F
BEAUMONT CITY    N/A     71  55  56 CALM      30.10F
ORANGE         CLOUDY    71  56  59 NW5       30.11F
JASPER         MOSUNNY   70  50  48 NE5       30.13F
$$

ACROSS CENTRAL LOUISIANA

CITY           SKY/WX    TMP DP  RH WIND       PRES   REMARKS
LEESVILLE      CLOUDY    70  51  52 VRB5      30.10F
FULLERTON        N/A     72  51  47 VRB3      30.08F
ALEXANDRIA INT CLOUDY    68  47  46 N6        30.09F
ESLER FIELD    CLOUDY    65  51  60 VRB3      30.11F
DERIDDER         N/A     70  48  44 NW5       30.13F
OAKDALE        CLOUDY    69  54  60 NE6       30.09F
OPELOUSAS        N/A     70  51  50 N9        30.09F
$$

ACROSS SOUTHWEST AND SOUTH CENTRAL LOUISIANA

CITY           SKY/WX    TMP DP  RH WIND       PRES   REMARKS
SULPHUR        CLOUDY    73  52  46 NW6       30.10F
LAKE CHARLES   CLOUDY    73  51  46 VRB5      30.08F
CHENNAULT INT  PTSUNNY   72  52  49 VRB3      30.09F
CAMERON PHI    CLEAR     73  54  49 E6        30.10F
DEQUINCY         N/A     69  53  57 NW7       30.11F
JENNINGS         N/A     71  50  48 NW6       30.08F
LAFAYETTE      MOSUNNY   75  49  39 NE3       30.08F
NEW IBERIA     SUNNY     76  50  40 N5        30.07F
ABBEVILLE        N/A     76  50  40 N5        30.07F
PATTERSON      SUNNY     75  52  43 NE8       30.08F
SALT POINT       N/A     77  49  37 CALM      30.04F
$$

SELECTED SITES ACROSS THE REGION

CITY           SKY/WX    TMP DP  RH WIND       PRES   REMARKS
HOUSTON BUSH   MOSUNNY   79  55  43 N8        30.10F
HOUSTON HOBBY  PTSUNNY   77  54  44 N8        30.09F
GALVESTON      PTSUNNY   75  64  68 N12       30.09F
COLLEGE STAT   SUNNY     76  55  48 CALM      30.11F
CONROE         SUNNY     75  52  44 MISG      30.11F
HUNTSVILLE     MOSUNNY   76  53  44 VRB6      30.11F
LUFKIN         MOSUNNY   77  52  41 VRB5      30.12F
SHREVEPORT     MOSUNNY   68  48  48 N3        30.13F
MONROE         CLOUDY    64  48  56 N6        30.13F
NATCHEZ MS     CLOUDY    66  46  48 NE7       30.11F
BATON ROUGE    MOSUNNY   75  47  36 VRB6      30.07F
N.O. INTL ARPT MOSUNNY   73  41  31 NE10      30.06F
SLIDELL        SUNNY     74  44  34 NE8       30.06F
$$

MARINE REPORTS

STATION/POSITION TIME  TEMP    WIND        PRES    VSBY  WAVE
                       AIR SEA DIR/SP/G                  HT/PER
                 (UTC) (F)     (DEG/KT/KT) (MB)    (MI)  (FT/S)
BUOY 30 S HIGH I 1900   72 78   30/  4/  8 1018.5F         3/ 6
SEA RIM ST PARK  1900   73     360/  4/  4 1019.2F
PORT ARTHUR      1900      74  110/  7/  9 1018.8F
SABINE PASS N    1900   72 73   70/  5/  7 1019.0F
TEXAS POINT      1900   71 73  120/  6/  7 1018.8F
CALCASIEU PASS   1900   71 71   50/  7/  9   N/A
LK CHARLES BEACH 1900   70 76              1018.7F
MARSH ISLAND     NOT AVBL
FRESH WATER LOCK 1900   73 74   10/  5/ 10 1018.2S
AMERADA PASS     1900   73 71  320/  3/  6 1017.5F
$$



USA.gov is the U.S. government's official web portal to all federal, state and local government web resources and services.